This is the latest recevied weather packets stored in our database for station/object PD2BVG. If no packets are shown the sender has not sent any weather packets the latest 1 day(s).
| Time | Temp. | Humidity | Pressure | Rain* | Wind** | Luminosity | Snow |
|---|---|---|---|---|---|---|---|
| 1778092484 | 12.78° C | 77% | 1012 hPa | 0 mm | - | 23 W/m² | - |
| 1778092362 | 12.78° C | 77% | 1012 hPa | 0 mm | - | 23 W/m² | - |
| 1778091936 | 12.78° C | 77% | 1011.9 hPa | 0 mm | - | 34 W/m² | - |
| 1778091816 | 12.78° C | 76% | 1011.9 hPa | 0 mm | - | 37 W/m² | - |
| 1778091754 | 12.78° C | 76% | 1011.9 hPa | 0 mm | - | 35 W/m² | - |
| 1778091695 | 12.78° C | 76% | 1011.8 hPa | 0 mm | - | 35 W/m² | - |
| 1778091517 | 12.78° C | 76% | 1011.8 hPa | 0 mm | - | 39 W/m² | - |
| 1778091215 | 12.78° C | 75% | 1011.8 hPa | 0 mm | - | 55 W/m² | - |
| 1778091035 | 12.78° C | 75% | 1011.7 hPa | 0 mm | - | 58 W/m² | - |
| 1778090974 | 12.78° C | 75% | 1011.7 hPa | 0 mm | - | 58 W/m² | - |
| 1778090914 | 12.78° C | 75% | 1011.6 hPa | 0 mm | - | 58 W/m² | - |
| 1778090371 | 12.78° C | 74% | 1011.5 hPa | 0 mm | - | 79 W/m² | - |
| 1778090070 | 13.33° C | 74% | 1011.5 hPa | 0 mm | - | 70 W/m² | - |
| 1778089710 | 13.33° C | 73% | 1011.4 hPa | 0 mm | - | 85 W/m² | - |
| 1778089530 | 13.33° C | 73% | 1011.3 hPa | 0 mm | - | 90 W/m² | - |
| 1778089408 | 13.33° C | 72% | 1011.4 hPa | 0 mm | - | 100 W/m² | - |
| 1778089287 | 13.33° C | 72% | 1011.2 hPa | 0 mm | - | 130 W/m² | - |
| 1778089106 | 13.33° C | 72% | 1011.3 hPa | 0 mm | - | 216 W/m² | - |
| 1778088744 | 13.33° C | 72% | 1011.2 hPa | 0 mm | - | 234 W/m² | - |
| 1778088684 | 13.33° C | 72% | 1011.2 hPa | 0 mm | - | 238 W/m² | - |
| 1778088556 | 13.33° C | 72% | 1011.3 hPa | 0 mm | - | 236 W/m² | - |
| 1778088495 | 13.33° C | 71% | 1011.3 hPa | 0 mm | - | 148 W/m² | - |
| 1778088377 | 13.33° C | 71% | 1011.1 hPa | 0 mm | - | 158 W/m² | - |
| 1778088314 | 13.33° C | 71% | 1011.2 hPa | 0 mm | - | 139 W/m² | - |
| 1778088128 | 13.33° C | 71% | 1011.2 hPa | 0 mm | - | 280 W/m² | - |
* Rain latest hour (hover to see other rain measurements)
** Current wind speed in m/s (hover to see current wind gust speed)